Date,TemperatureHighF,TemperatureAvgF,TemperatureLowF,DewpointHighF,DewpointAvgF,DewpointLowF,HumidityHigh,HumidityAvg,HumidityLow,PressureMaxIn,PressureMinIn,WindSpeedMaxMPH,WindSpeedAvgMPH,GustSpeedMaxMPH,PrecipitationSumIn
2013-8-1,67,53,47,-100,-100,-100,0,0,100,0.00,40.00,0,-999,0,0.02
2013-8-2,64,56,46,-100,-100,-100,0,0,100,0.00,40.00,0,-999,0,0.01
2013-8-3,66,56,49,-100,-100,-100,0,0,100,0.00,40.00,0,-999,0,0.00
2013-8-4,65,56,49,-100,-100,-100,0,0,100,0.00,40.00,0,-999,0,0.01
2013-8-5,63,53,48,-100,-100,-100,0,0,100,0.00,40.00,0,-999,0,0.01
2013-8-6,65,56,46,-100,-100,-100,0,0,100,0.00,40.00,0,-999,0,0.00
2013-8-7,62,54,45,-100,-100,-100,0,0,100,0.00,40.00,0,-999,0,0.00
2013-8-8,59,50,45,-100,-100,-100,0,0,100,0.00,40.00,0,-999,0,0.02
2013-8-9,54,48,42,-100,-100,-100,0,0,100,0.00,40.00,0,-999,0,0.01
2013-8-10,64,52,42,-100,-100,-100,0,0,100,0.00,40.00,0,-999,0,0.00
2013-8-11,60,50,43,-100,-100,-100,0,0,100,0.00,40.00,0,-999,0,0.01
2013-8-12,60,50,41,-100,-100,-100,0,0,100,0.00,40.00,0,-999,0,0.02
2013-8-13,53,46,42,-100,-100,-100,0,0,100,0.00,40.00,0,-999,0,0.03
2013-8-14,61,49,40,-100,-100,-100,0,0,100,0.00,40.00,0,-999,0,0.00
2013-8-15,64,55,46,-100,-100,-100,0,0,100,0.00,40.00,0,-999,0,0.00
2013-8-16,70,60,49,-100,-100,-100,0,0,100,0.00,40.00,0,-999,0,0.00
2013-8-17,69,62,52,-100,-100,-100,0,0,100,0.00,40.00,0,-999,0,0.00
2013-8-18,68,60,52,-100,-100,-100,0,0,100,0.00,40.00,0,-999,0,0.01
2013-8-19,70,59,50,-100,-100,-100,0,0,100,0.00,40.00,0,-999,0,0.00
2013-8-20,67,59,52,-100,-100,-100,0,0,100,0.00,40.00,0,-999,0,0.01
2013-8-21,63,55,48,-100,-100,-100,0,0,100,0.00,40.00,0,-999,0,0.01
2013-8-22,62,55,50,-100,-100,-100,0,0,100,0.00,40.00,0,-999,0,0.01
2013-8-23,65,56,48,-100,-100,-100,0,0,100,0.00,40.00,0,-999,0,0.00
2013-8-24,62,54,46,-100,-100,-100,0,0,100,0.00,40.00,0,-999,0,0.01
2013-8-25,59,52,45,-100,-100,-100,0,0,100,0.00,40.00,0,-999,0,0.01
2013-8-26,60,53,49,-100,-100,-100,0,0,100,0.00,40.00,0,-999,0,0.01
2013-8-27,62,54,48,-100,-100,-100,0,0,100,0.00,40.00,0,-999,0,0.00
2013-8-28,65,62,54,-100,-100,-100,0,0,100,0.00,40.00,0,-999,0,0.01
2013-8-29,69,58,49,-100,-100,-100,0,0,100,0.00,40.00,0,-999,0,0.00
2013-8-30,68,60,51,-100,-100,-100,0,0,100,0.00,40.00,0,-999,0,0.01
2013-8-31,69,57,52,-100,-100,-100,0,0,100,0.00,40.00,0,-999,0,0.01